Location: Kershaw
(34.5481°N, 80.5823°W)
Time: 17:00:57
(UTC+00:00)

Courier 1B Rocket - Pass Details

Date: 02 October 2022
Orbit: 920 x 1202 km, 28.2° (Epoch: 08 December)

Event Time Altitude Azimuth Distance (km) Brightness Sun altitude
Rises 04:33:37 0° 267° (W) 3,570 - -57.8°
Reaches altitude 10° 04:36:27 10° 259° (WSW) 2,611 - -57.9°
Maximum altitude 04:42:02 35° 195° (SSW) 1,444 - -58.3°
Drops below altitude 10° 04:47:38 10° 132° (SE) 2,626 - -58.5°
Sets 04:50:30 0° 123° (ESE) 3,594 - -58.6°
